User: anonymous   Login
Location: Rimouski
(48.4330°N, 68.5170°W)
Time: 15:08:45
(UTC-04:00)
Language:

Envisat - Orbit

View from above orbital plane
View from above orbital plane
View from above satellite
View from above satellite

Ground track
Ground track

The orbit data is extracted from the following two-line orbital elements,

1 27386U 02009A   19145.54477347 -.00000005  00000-0  11671-4 0  9994
2 27386  98.1507 167.8041 0001296  88.3592  84.8958 14.37949118902727
Epoch (UTC): 25 May 2019 13:04:28
Eccentricity: 0.0001296
inclination: 98.1507°
perigee height: 764 km
apogee height: 766 km
right ascension of ascending node: 167.8041°
argument of perigee: 88.3592°
revolutions per day: 14.37949118
mean anomaly at epoch: 84.8958°
orbit number at epoch: 90272

The dashed part of the orbit path shows where the satellite is in the earth's shadow,  

DLR